Location: Newark
(25.6108°S, 54.5803°W)
Time: 20:37:32
(UTC+00:00)

Courier 1B - Pass Details

Date: 27 October 2020
Orbit: 962 x 1209 km, 28.3° (Epoch: 24 November)

Event Time Altitude Azimuth Distance (km) Brightness Sun altitude
Rises 01:57:12 0° 298° (WNW) 3,983 - -46.3°
Reaches altitude 10° 01:59:58 10° 300° (WNW) 3,055 - -46.6°
Maximum altitude 02:07:31 66° 21° (NNE) 1,289 - -47.4°
Drops below altitude 10° 02:15:21 10° 101° (E) 3,155 - -48.2°
Sets 02:18:15 0° 103° (ESE) 4,119 - -48.5°
